Regional Weather Roundup
Issued by NWS Northern Indiana

Home | Current Version | Previous Version | Text Only | Print | Product List | Glossary On
Versions: 1 2 3 4 5 6 7 8 9 10 11 12 13 14 15 16 17 18 19 20 21 22 23 24 25 26 27 28 29 30 31 32 33 34 35 36 37 38 39 40 41 42 43 44 45 46 47 48 49 50
000
ASUS43 KIWX 061400
RWRIWX

KIWX WEATHER ROUNDUP
NATIONAL WEATHER SERVICE NORTHERN INDIANA
1000 AM EDT MON JUL 06 2015

NOTE: "FAIR" INDICATES FEW OR NO CLOUDS BELOW 12,000 FEET WITH NO
SIGNIFICANT WEATHER AND/OR OBSTRUCTIONS TO VISIBILITY.

* THESE STATIONS ARE NOT UNDER NWS QUALITY CONTROL. THEY ALSO MAY NOT
  REPORT WEATHER SUCH AS PRECIPITATION OR FOG.

INZ001>027-061500-
NORTHERN INDIANA

CITY           SKY/WX    TMP DP  RH WIND       PRES   REMARKS
GARY*          SUNNY    N/A N/A N/A S7        30.01F
SOUTH BEND     SUNNY     75  67  76 S9        30.04F
GOSHEN         SUNNY     73  67  81 SW9       30.06F HAZE
ANGOLA*          N/A     73  66  78 W3        30.08S
FORT WAYNE     SUNNY     74  66  76 SW7       30.08F
PERU/GRISSOM   SUNNY     74  68  80 SW10      30.07S

$$
INZ028>050-061500-
CENTRAL INDIANA

CITY           SKY/WX    TMP DP  RH WIND       PRES   REMARKS
LAFAYETTE      MOSUNNY   73  68  84 S7        30.06F HAZE
KOKOMO*        SUNNY     75  66  73 SW9       30.08S
MUNCIE*        SUNNY     74  63  68 SW8       30.09S
INDIANAPOLIS   SUNNY     74  64  71 S8        30.08S

$$
MIZ043>046-050>051-056>058-064>065-071>073-077>080-061500-
SOUTHWEST LOWER MICHIGAN

CITY           SKY/WX    TMP DP  RH WIND       PRES   REMARKS
BATTLE CREEK   SUNNY     74  64  71 S8        30.07F
BENTON HARBOR  MOSUNNY   75  67  76 S7        30.01F
COLDWATER*     SUNNY     72  63  71 SW6       30.08S
HILLSDALE*     SUNNY     74  65  72 W5        30.09R
HOLLAND        MOSUNNY   74  66  76 S9        30.02F
GRAND RAPIDS   PTSUNNY   73  64  73 S9        30.04F
KALAMAZOO      SUNNY     74  65  73 SW9       30.05F
STURGIS*       SUNNY     72  66  83 SW5       30.06F
THREE RIVERS*  FAIR      73  65  75 SW6       30.06F

$$
OHZ001>008-015>018-024>025-061500-
NORTHWEST OHIO

CITY           SKY/WX    TMP DP  RH WIND       PRES   REMARKS
DEFIANCE       SUNNY     73  64  73 SW5       30.08F
FINDLAY        SUNNY     73  64  73 SW6       30.07F
TOLEDO EXPRESS SUNNY     72  63  73 S5        30.07F
TOLEDO METCALF   N/A     72  62  71 MISG      30.08F
LIMA           SUNNY     72  63  73 W5        30.09F

$$
AND FOR LAKE MICHIGAN COASTAL AND OPEN LAKE BUOY OBSERVATIONS

STATION/POSITION TEMP    WIND        PRES    VSBY  WAVE
                 AIR SEA DIR/SP/G                  HT/PER
                 (F)     (DEG/KT/KT) (MB)    (MI)  (FT/S)
CALUMET HARBOR    72     160/  9/ 11   N/A
MICHIGAN CITY     70     160/ 12/ 15   N/A
BURNS HARBOR      72     180/  8/ 12 1017.3F
SAINT JOSEPH      72     140/  1/  5 1017.9R
4 MI NW BRIDGMAN  67 65  210/  8/  8   N/A           1/ 2
MICHIGAN CITY     68 66  190/  8/ 10   N/A           1

$$
&&



USA.gov is the U.S. government's official web portal to all federal, state and local government web resources and services.